Weather Roundup
Issued by NWS Chicago, IL

Home | Current Version | Previous Version | Graphics & Text | Print | Product List | Glossary On
Versions: 1 2 3 4 5 6 7 8 9 10 11 12 13 14 15 16 17 18 19 20 21 22 23 24 25 26 27 28 29 30 31 32 33 34 35 36 37 38 39 40 41 42 43 44 45 46 47 48 49 50
000
NZUS59 KLOT 031912
HRRLOT

CHICAGO AREA WEATHER ROUNDUP
NATIONAL WEATHER SERVICE CHICAGO/ROMEOVILLE IL
200 PM CDT THU SEP 03 2015

NOTE: "FAIR" INDICATES FEW OR NO CLOUDS BELOW 12,000 FEET WITH NO
SIGNIFICANT WEATHER AND/OR OBSTRUCTIONS TO VISIBILITY.

* THESE STATIONS ARE NOT UNDER NWS QUALITY CONTROL. THEY ALSO MAY NOT
  REPORT WEATHER SUCH AS PRECIPITATION OR FOG.

ILZ005-006-012>014-019>023-032000-
NORTHEAST ILLINOIS

CITY           SKY/WX    TMP DP  RH WIND       PRES   REMARKS
OHARE          MOSUNNY   89  68  49 SW12      29.91F HX  93
MIDWAY         PTSUNNY   91  67  44 SW15      29.91F HX  94
AURORA         MOSUNNY   88  71  57 W14       29.94F HX  94
LANSING*       MOSUNNY   89  68  50 W10G21    29.93F HX  92
JOLIET*        PTSUNNY   91  71  50 W10G17    29.93F HX  98
WAUKEGAN       MOSUNNY   86  73  65 VRB3      29.91F HX  93
DUPAGE AIRPORT PTSUNNY   89  69  51 SW14      29.92F HX  93
WHEELING       PTSUNNY   90  70  51 W10       29.92F HX  95
KANKAKEE*      MOSUNNY   91  71  52 W13       29.95F HX  97
MORRIS*        MOSUNNY   89  69  50 W13G18    29.93S HX  93
LEWIS AIRPORT* MOSUNNY   87  67  51 W10G16    29.93F HX  89
NORTHERLY IS     N/A     89  63  41 SW13        N/A  HX  90
$$

WIZ051-052-058>065-066-070>072-032000-
SOUTHEAST WISCONSIN

CITY           SKY/WX    TMP DP  RH WIND       PRES   REMARKS
MILWAUKEE      PTSUNNY   80  70  71 E7        29.91F HX  83
KENOSHA*       PTSUNNY   87  72  60 W6        29.92F HX  93
RACINE*        SUNNY     88  71  57 W10       29.92F HX  94
BURLINGTON     MOSUNNY   84  70  62 SW6       29.92F HX  88
WAUKESHA       PTSUNNY   82  70  65 W9        29.94F HX  86
WEST BEND      CLOUDY    77  68  73 NW9       29.93F
$$

INZ001>003-010>013-019-020-032000-
NORTHWEST INDIANA

CITY           SKY/WX    TMP DP  RH WIND       PRES   REMARKS
GARY*          PTSUNNY   90  64  43 W14       29.93F HX  91
MICHIGAN CITY* NOT AVBL
RENSSELAER*    NOT AVBL
VALPARAISO     PTSUNNY   89  71  55 W8        29.95F HX  95
$$

LMZ740>746-032000-
SOUTHERN LAKE MICHIGAN

STATION/POSITION TIME  SKY/WX   TEMP WIND        PRES    VSBY
                                AIR  DIR/SP/G
                 (UTC)          (F)  (DEG/KT/KT) (MB)    (MI)
HARRISON CRIB    1900            85  250/ 10/ 14   N/A
BURNHAM HARBOR   1900            89  220/  7/ 12   N/A
CALUMET HARBOR   1800            88  230/  7/ 12   N/A
BURNS HARBOR     1800            85  240/ 15/ 17 1013.9F
MICHIGAN CITY    1800            81  210/  7/  7   N/A
$$

ABBREVIATIONS USED IN REMARKS
   TC - TEMPERATURE IN CELSIUS
  WCI - WIND CHILL INDEX
   HX - HEAT INDEX
  VSB - VISIBILITY
$$



USA.gov is the U.S. government's official web portal to all federal, state and local government web resources and services.